NORTHEAST SUFFOLK  -  Rip Current Statement Rip Current Statement        NORTHERN NASSAU  -  Rip Current Statement Rip Current Statement        NORTHERN QUEENS  -  Rip Current Statement Rip Current Statement     Air Quality Alert Air Quality Alert        NORTHWEST SUFFOLK  -  Rip Current Statement Rip Current Statement        SOUTHEAST SUFFOLK  -  Rip Current Statement Rip Current Statement        SOUTHERN NASSAU  -  Rip Current Statement Rip Current Statement        SOUTHERN QUEENS  -  Rip Current Statement Rip Current Statement     Air Quality Alert Air Quality Alert        SOUTHWEST SUFFOLK  -  Rip Current Statement Rip Current Statement      

Active alerts

Northern Queens
  Details for Northern Queens Rip Current Statement  +1 additional alert
Southern Queens
  Details for Southern Queens Rip Current Statement  +1 additional alert
Northern Nassau
  Details for Northern Nassau Rip Current Statement
Southern Nassau
  Details for Southern Nassau Rip Current Statement
Northwest Suffolk
  Details for Northwest Suffolk Rip Current Statement
Southwest Suffolk
  Details for Southwest Suffolk Rip Current Statement
Northeast Suffolk
  Details for Northeast Suffolk Rip Current Statement
Southeast Suffolk
  Details for Southeast Suffolk Rip Current Statement


WXM80 ListenWXM80 Stop

You find our weather info also at:

UK Metoffice

WeatherCloud

Weather Underground

Northeastern Weather Network

AWEKAS

Citizen Weather Observer Program (CWOP)

HAMweather, WeatherForYou, PWS Weather


Weather Underground History page Text

Daily Summary for December 2, 2017 Units:  Both    English   Metric
« Previous Day
Next Day »
Daily Weekly Monthly Yearly Custom
  High: Low: Average:
Temperature: 47.4 °F /  8.6 °C 35.2 °F /  1.8 °C 41.1 °F /  5.1 °C
Dew Point: 39.2 °F /  4 °C 30.9 °F /  -0.6 °C 34.6 °F /  1.4 °C
Humidity: 90 % 68 % 78 %
Wind Speed: 8.4 mph /  13.5 km/h - 1.1 mph /  1.8 km/h
Wind Gust: 12.7 mph /  20.4 km/h - -
Wind:- - ENE
Pressure: 30.33 in /  1027 hPa 30.23 in /  1023.6 hPa -
Precipitation: 0.00 in /  0 mm    
Historical Graphs
 
 
Tabular Data for December 2, 2017
Time Temperature Dew Point Pressure Wind Wind Speed Wind Gust Humidity Rainfall Rate (Hourly)
00:04 42.2 °F /  5.7 °C 33.5 °F /  0.8 °C 30.28 in /  1025.3 hPa North 7.5 mph /  12.1 km/h 11.5 mph /  18.5 km/h 71 % 0.00 in /  0 mm
00:09 42.2 °F /  5.7 °C 33.5 °F /  0.8 °C 30.28 in /  1025.3 hPa NNE 4.7 mph /  7.6 km/h 9.2 mph /  14.8 km/h 71 % 0.00 in /  0 mm
00:14 42.1 °F /  5.6 °C 33.4 °F /  0.8 °C 30.29 in /  1025.6 hPa NNE 6.1 mph /  9.8 km/h 10.0 mph /  16.1 km/h 71 % 0.00 in /  0 mm
00:29 42.0 °F /  5.6 °C 33.3 °F /  0.7 °C 30.28 in /  1025.3 hPa NNE 8.3 mph /  13.4 km/h 12.0 mph /  19.3 km/h 71 % 0.00 in /  0 mm
00:44 41.9 °F /  5.5 °C 33.5 °F /  0.8 °C 30.29 in /  1025.6 hPa NNE 8.4 mph /  13.5 km/h 12.7 mph /  20.4 km/h 72 % 0.00 in /  0 mm
00:50 41.9 °F /  5.5 °C 33.2 °F /  0.7 °C 30.29 in /  1025.6 hPa North 5.4 mph /  8.7 km/h 11.5 mph /  18.5 km/h 71 % 0.00 in /  0 mm
01:00 41.9 °F /  5.5 °C 33.2 °F /  0.7 °C 30.29 in /  1025.6 hPa North 6.4 mph /  10.3 km/h 8.1 mph /  13 km/h 71 % 0.00 in /  0 mm
01:05 41.8 °F /  5.4 °C 33.1 °F /  0.6 °C 30.28 in /  1025.3 hPa NNE 7.4 mph /  11.9 km/h 11.5 mph /  18.5 km/h 71 % 0.00 in /  0 mm
01:10 41.8 °F /  5.4 °C 33.4 °F /  0.8 °C 30.28 in /  1025.3 hPa NNE 4.9 mph /  7.9 km/h 8.1 mph /  13 km/h 72 % 0.00 in /  0 mm
01:15 41.8 °F /  5.4 °C 32.7 °F /  0.4 °C 30.28 in /  1025.3 hPa NE 4.9 mph /  7.9 km/h 11.5 mph /  18.5 km/h 70 % 0.00 in /  0 mm
01:26 41.8 °F /  5.4 °C 33.1 °F /  0.6 °C 30.29 in /  1025.6 hPa NNE 6.2 mph /  10 km/h 9.0 mph /  14.5 km/h 71 % 0.00 in /  0 mm
01:31 41.7 °F /  5.4 °C 33.3 °F /  0.7 °C 30.28 in /  1025.3 hPa NNE 5.8 mph /  9.3 km/h 5.8 mph /  9.3 km/h 72 % 0.00 in /  0 mm
01:37 41.7 °F /  5.4 °C 33.3 °F /  0.7 °C 30.28 in /  1025.3 hPa North 7.0 mph /  11.3 km/h 10.4 mph /  16.7 km/h 72 % 0.00 in /  0 mm
01:42 41.6 °F /  5.3 °C 33.2 °F /  0.7 °C 30.28 in /  1025.3 hPa NNE 3.8 mph /  6.1 km/h 3.8 mph /  6.1 km/h 72 % 0.00 in /  0 mm
01:52 41.4 °F /  5.2 °C 32.7 °F /  0.4 °C 30.28 in /  1025.3 hPa NE 4.2 mph /  6.8 km/h 7.0 mph /  11.3 km/h 71 % 0.00 in /  0 mm
02:02 41.5 °F /  5.3 °C 33.1 °F /  0.6 °C 30.29 in /  1025.6 hPa NE 3.0 mph /  4.8 km/h 5.0 mph /  8 km/h 72 % 0.00 in /  0 mm
02:07 41.5 °F /  5.3 °C 33.5 °F /  0.8 °C 30.30 in /  1026 hPa NNE 4.6 mph /  7.4 km/h 9.2 mph /  14.8 km/h 73 % 0.00 in /  0 mm
02:12 41.5 °F /  5.3 °C 33.5 °F /  0.8 °C 30.30 in /  1026 hPa NNE 2.2 mph /  3.5 km/h 6.9 mph /  11.1 km/h 73 % 0.00 in /  0 mm
02:17 41.4 °F /  5.2 °C 33.4 °F /  0.8 °C 30.30 in /  1026 hPa NE 6.3 mph /  10.1 km/h 10.4 mph /  16.7 km/h 73 % 0.00 in /  0 mm
02:27 41.4 °F /  5.2 °C 33.7 °F /  0.9 °C 30.30 in /  1026 hPa NE 3.1 mph /  5 km/h 7.0 mph /  11.3 km/h 74 % 0.00 in /  0 mm
02:33 41.3 °F /  5.2 °C 33.6 °F /  0.9 °C 30.30 in /  1026 hPa NE 5.9 mph /  9.5 km/h 9.0 mph /  14.5 km/h 74 % 0.00 in /  0 mm
02:38 41.3 °F /  5.2 °C 33.6 °F /  0.9 °C 30.30 in /  1026 hPa NE 3.3 mph /  5.3 km/h 5.8 mph /  9.3 km/h 74 % 0.00 in /  0 mm
02:48 41.2 °F /  5.1 °C 33.5 °F /  0.8 °C 30.30 in /  1026 hPa North 4.8 mph /  7.7 km/h 8.1 mph /  13 km/h 74 % 0.00 in /  0 mm
02:53 41.1 °F /  5.1 °C 33.4 °F /  0.8 °C 30.30 in /  1026 hPa NE 1.9 mph /  3.1 km/h 3.5 mph /  5.6 km/h 74 % 0.00 in /  0 mm
03:03 41.0 °F /  5 °C 33.3 °F /  0.7 °C 30.30 in /  1026 hPa North 2.9 mph /  4.7 km/h 5.0 mph /  8 km/h 74 % 0.00 in /  0 mm
03:08 41.0 °F /  5 °C 33.3 °F /  0.7 °C 30.30 in /  1026 hPa NNW 1.1 mph /  1.8 km/h 4.6 mph /  7.4 km/h 74 % 0.00 in /  0 mm
03:13 40.9 °F /  4.9 °C 33.6 °F /  0.9 °C 30.30 in /  1026 hPa NNW 2.2 mph /  3.5 km/h 5.8 mph /  9.3 km/h 75 % 0.00 in /  0 mm
03:18 40.8 °F /  4.9 °C 33.2 °F /  0.7 °C 30.30 in /  1026 hPa North 1.2 mph /  1.9 km/h 4.0 mph /  6.4 km/h 74 % 0.00 in /  0 mm
03:23 40.7 °F /  4.8 °C 33.1 °F /  0.6 °C 30.30 in /  1026 hPa North 0.4 mph /  0.6 km/h 3.5 mph /  5.6 km/h 74 % 0.00 in /  0 mm
03:29 40.7 °F /  4.8 °C 33.1 °F /  0.6 °C 30.30 in /  1026 hPa NNE 3.0 mph /  4.8 km/h 5.0 mph /  8 km/h 74 % 0.00 in /  0 mm
03:49 40.3 °F /  4.6 °C 33.3 °F /  0.7 °C 30.32 in /  1026.6 hPa NNW 0.6 mph /  1 km/h 4.6 mph /  7.4 km/h 76 % 0.00 in /  0 mm
03:55 40.1 °F /  4.5 °C 33.1 °F /  0.6 °C 30.31 in /  1026.3 hPa NW 0.4 mph /  0.6 km/h 1.2 mph /  1.9 km/h 76 % 0.00 in /  0 mm
04:00 40.0 °F /  4.4 °C 33.0 °F /  0.6 °C 30.31 in /  1026.3 hPa NW 1.2 mph /  1.9 km/h 3.5 mph /  5.6 km/h 76 % 0.00 in /  0 mm
04:10 39.7 °F /  4.3 °C 33.1 °F /  0.6 °C 30.30 in /  1026 hPa North 2.6 mph /  4.2 km/h 6.0 mph /  9.7 km/h 77 % 0.00 in /  0 mm
04:15 39.6 °F /  4.2 °C 33.0 °F /  0.6 °C 30.31 in /  1026.3 hPa North 0.4 mph /  0.6 km/h 2.3 mph /  3.7 km/h 77 % 0.00 in /  0 mm
04:20 39.5 °F /  4.2 °C 32.9 °F /  0.5 °C 30.30 in /  1026 hPa North 1.4 mph /  2.3 km/h 3.5 mph /  5.6 km/h 77 % 0.00 in /  0 mm
04:31 39.2 °F /  4 °C 32.9 °F /  0.5 °C 30.31 in /  1026.3 hPa North 1.0 mph /  1.6 km/h 3.0 mph /  4.8 km/h 78 % 0.00 in /  0 mm
04:41 39.1 °F /  3.9 °C 32.8 °F /  0.4 °C 30.31 in /  1026.3 hPa North 2.0 mph /  3.2 km/h 4.0 mph /  6.4 km/h 78 % 0.00 in /  0 mm
04:46 38.9 °F /  3.8 °C 32.6 °F /  0.3 °C 30.31 in /  1026.3 hPa North 2.0 mph /  3.2 km/h 5.0 mph /  8 km/h 78 % 0.00 in /  0 mm
04:51 38.9 °F /  3.8 °C 32.9 °F /  0.5 °C 30.31 in /  1026.3 hPa North 1.0 mph /  1.6 km/h 4.0 mph /  6.4 km/h 79 % 0.00 in /  0 mm
04:56 38.8 °F /  3.8 °C 32.8 °F /  0.4 °C 30.30 in /  1026 hPa NNE 2.0 mph /  3.2 km/h 7.0 mph /  11.3 km/h 79 % 0.00 in /  0 mm
05:01 38.7 °F /  3.7 °C 32.7 °F /  0.4 °C 30.30 in /  1026 hPa NNE 2.8 mph /  4.5 km/h 4.0 mph /  6.4 km/h 79 % 0.00 in /  0 mm
05:06 38.7 °F /  3.7 °C 33.1 °F /  0.6 °C 30.30 in /  1026 hPa NNE 1.0 mph /  1.6 km/h 4.0 mph /  6.4 km/h 80 % 0.00 in /  0 mm
05:11 38.7 °F /  3.7 °C 33.1 °F /  0.6 °C 30.30 in /  1026 hPa North 2.0 mph /  3.2 km/h 4.0 mph /  6.4 km/h 80 % 0.00 in /  0 mm
05:16 38.7 °F /  3.7 °C 33.1 °F /  0.6 °C 30.30 in /  1026 hPa North 2.0 mph /  3.2 km/h 4.0 mph /  6.4 km/h 80 % 0.00 in /  0 mm
05:26 38.5 °F /  3.6 °C 32.9 °F /  0.5 °C 30.30 in /  1026 hPa NNE 1.0 mph /  1.6 km/h 5.0 mph /  8 km/h 80 % 0.00 in /  0 mm
05:31 38.4 °F /  3.6 °C 32.8 °F /  0.4 °C 30.30 in /  1026 hPa Calm   2.0 mph /  3.2 km/h 80 % 0.00 in /  0 mm
05:41 38.1 °F /  3.4 °C 32.5 °F /  0.3 °C 30.31 in /  1026.3 hPa Calm   1.0 mph /  1.6 km/h 80 % 0.00 in /  0 mm
05:46 38.0 °F /  3.3 °C 32.4 °F /  0.2 °C 30.31 in /  1026.3 hPa Calm     80 % 0.00 in /  0 mm
05:51 37.8 °F /  3.2 °C 32.2 °F /  0.1 °C 30.31 in /  1026.3 hPa Calm   1.0 mph /  1.6 km/h 80 % 0.00 in /  0 mm
05:56 37.6 °F /  3.1 °C 32.0 °F /  0 °C 30.31 in /  1026.3 hPa Calm     80 % 0.00 in /  0 mm
06:01 37.5 °F /  3.1 °C 31.9 °F /  -0.1 °C 30.30 in /  1026 hPa Calm     80 % 0.00 in /  0 mm
06:06 37.3 °F /  2.9 °C 32.0 °F /  0 °C 30.30 in /  1026 hPa Calm     81 % 0.00 in /  0 mm
06:11 37.1 °F /  2.8 °C 31.8 °F /  -0.1 °C 30.31 in /  1026.3 hPa Calm     81 % 0.00 in /  0 mm
06:16 37.0 °F /  2.8 °C 31.7 °F /  -0.2 °C 30.31 in /  1026.3 hPa Calm     81 % 0.00 in /  0 mm
06:21 36.9 °F /  2.7 °C 31.6 °F /  -0.2 °C 30.31 in /  1026.3 hPa Calm     81 % 0.00 in /  0 mm
06:26 36.8 °F /  2.7 °C 31.8 °F /  -0.1 °C 30.31 in /  1026.3 hPa Calm     82 % 0.00 in /  0 mm
06:36 36.6 °F /  2.6 °C 31.6 °F /  -0.2 °C 30.31 in /  1026.3 hPa East 0.9 mph /  1.4 km/h 2.3 mph /  3.7 km/h 82 % 0.00 in /  0 mm
06:41 36.5 °F /  2.5 °C 31.8 °F /  -0.1 °C 30.31 in /  1026.3 hPa Calm     83 % 0.00 in /  0 mm
06:52 36.2 °F /  2.3 °C 31.5 °F /  -0.3 °C 30.32 in /  1026.6 hPa Calm     83 % 0.00 in /  0 mm
06:57 36.1 °F /  2.3 °C 31.4 °F /  -0.3 °C 30.31 in /  1026.3 hPa Calm     83 % 0.00 in /  0 mm
07:02 36.0 °F /  2.2 °C 31.3 °F /  -0.4 °C 30.32 in /  1026.6 hPa East 0.4 mph /  0.6 km/h 1.2 mph /  1.9 km/h 83 % 0.00 in /  0 mm
07:07 35.9 °F /  2.2 °C 31.2 °F /  -0.4 °C 30.32 in /  1026.6 hPa Calm     83 % 0.00 in /  0 mm
07:12 35.8 °F /  2.1 °C 31.1 °F /  -0.5 °C 30.32 in /  1026.6 hPa Calm     83 % 0.00 in /  0 mm
07:22 35.6 °F /  2 °C 31.2 °F /  -0.4 °C 30.32 in /  1026.6 hPa Calm     84 % 0.00 in /  0 mm
07:27 35.5 °F /  1.9 °C 31.1 °F /  -0.5 °C 30.32 in /  1026.6 hPa Calm     84 % 0.00 in /  0 mm
07:32 35.3 °F /  1.8 °C 30.9 °F /  -0.6 °C 30.33 in /  1027 hPa Calm     84 % 0.00 in /  0 mm
07:37 35.3 °F /  1.8 °C 30.9 °F /  -0.6 °C 30.32 in /  1026.6 hPa Calm   1.2 mph /  1.9 km/h 84 % 0.00 in /  0 mm
07:47 35.2 °F /  1.8 °C 31.4 °F /  -0.3 °C 30.32 in /  1026.6 hPa Calm     86 % 0.00 in /  0 mm
07:57 35.2 °F /  1.8 °C 31.4 °F /  -0.3 °C 30.33 in /  1027 hPa Calm     86 % 0.00 in /  0 mm
08:02 35.3 °F /  1.8 °C 31.8 °F /  -0.1 °C 30.33 in /  1027 hPa Calm     87 % 0.00 in /  0 mm
08:13 35.6 °F /  2 °C 32.4 °F /  0.2 °C 30.33 in /  1027 hPa Calm     88 % 0.00 in /  0 mm
08:18 35.7 °F /  2.1 °C 32.5 °F /  0.3 °C 30.32 in /  1026.6 hPa Calm     88 % 0.00 in /  0 mm
08:23 35.9 °F /  2.2 °C 33.0 °F /  0.6 °C 30.32 in /  1026.6 hPa Calm     89 % 0.00 in /  0 mm
08:28 36.2 °F /  2.3 °C 33.3 °F /  0.7 °C 30.32 in /  1026.6 hPa Calm     89 % 0.00 in /  0 mm
08:33 36.6 °F /  2.6 °C 33.7 °F /  0.9 °C 30.32 in /  1026.6 hPa Calm     89 % 0.00 in /  0 mm
08:38 37.0 °F /  2.8 °C 34.3 °F /  1.3 °C 30.32 in /  1026.6 hPa Calm     90 % 0.00 in /  0 mm
08:48 37.7 °F /  3.2 °C 35.0 °F /  1.7 °C 30.32 in /  1026.6 hPa East 0.4 mph /  0.6 km/h 1.2 mph /  1.9 km/h 90 % 0.00 in /  0 mm
08:53 38.2 °F /  3.4 °C 35.5 °F /  1.9 °C 30.32 in /  1026.6 hPa Calm   1.2 mph /  1.9 km/h 90 % 0.00 in /  0 mm
08:58 38.9 °F /  3.8 °C 35.9 °F /  2.2 °C 30.32 in /  1026.6 hPa East 0.1 mph /  0.2 km/h 1.2 mph /  1.9 km/h 89 % 0.00 in /  0 mm
09:03 39.7 °F /  4.3 °C 36.4 °F /  2.4 °C 30.32 in /  1026.6 hPa East 0.2 mph /  0.3 km/h 2.0 mph /  3.2 km/h 88 % 0.00 in /  0 mm
09:08 40.5 °F /  4.7 °C 36.6 °F /  2.6 °C 30.32 in /  1026.6 hPa East 0.1 mph /  0.2 km/h 1.2 mph /  1.9 km/h 86 % 0.00 in /  0 mm
09:18 41.9 °F /  5.5 °C 37.4 °F /  3 °C 30.32 in /  1026.6 hPa East 0.9 mph /  1.4 km/h 2.3 mph /  3.7 km/h 84 % 0.00 in /  0 mm
09:23 42.5 °F /  5.8 °C 37.4 °F /  3 °C 30.33 in /  1027 hPa East 0.7 mph /  1.1 km/h 3.5 mph /  5.6 km/h 82 % 0.00 in /  0 mm
09:28 43.2 °F /  6.2 °C 37.8 °F /  3.2 °C 30.33 in /  1027 hPa East 1.3 mph /  2.1 km/h 2.3 mph /  3.7 km/h 81 % 0.00 in /  0 mm
09:34 43.8 °F /  6.6 °C 38.0 °F /  3.3 °C 30.32 in /  1026.6 hPa NNE 1.8 mph /  2.9 km/h 3.0 mph /  4.8 km/h 80 % 0.00 in /  0 mm
09:44 44.7 °F /  7.1 °C 38.3 °F /  3.5 °C 30.32 in /  1026.6 hPa NE 0.1 mph /  0.2 km/h 3.5 mph /  5.6 km/h 78 % 0.00 in /  0 mm
09:49 45.0 °F /  7.2 °C 38.2 °F /  3.4 °C 30.33 in /  1027 hPa NE 1.2 mph /  1.9 km/h 2.3 mph /  3.7 km/h 77 % 0.00 in /  0 mm
09:54 45.4 °F /  7.4 °C 38.3 °F /  3.5 °C 30.33 in /  1027 hPa NE 1.7 mph /  2.7 km/h 3.5 mph /  5.6 km/h 76 % 0.00 in /  0 mm
09:59 45.5 °F /  7.5 °C 37.7 °F /  3.2 °C 30.33 in /  1027 hPa ENE 1.6 mph /  2.6 km/h 3.5 mph /  5.6 km/h 74 % 0.00 in /  0 mm
10:04 45.7 °F /  7.6 °C 37.9 °F /  3.3 °C 30.33 in /  1027 hPa ENE 1.3 mph /  2.1 km/h 3.0 mph /  4.8 km/h 74 % 0.00 in /  0 mm
10:09 45.8 °F /  7.7 °C 37.6 °F /  3.1 °C 30.32 in /  1026.6 hPa ENE 2.1 mph /  3.4 km/h 3.5 mph /  5.6 km/h 73 % 0.00 in /  0 mm
10:15 46.0 °F /  7.8 °C 38.2 °F /  3.4 °C 30.33 in /  1027 hPa ENE 2.4 mph /  3.9 km/h 3.0 mph /  4.8 km/h 74 % 0.00 in /  0 mm
10:20 46.2 °F /  7.9 °C 37.7 °F /  3.2 °C 30.32 in /  1026.6 hPa NNE 1.2 mph /  1.9 km/h 3.5 mph /  5.6 km/h 72 % 0.00 in /  0 mm
10:21 46.2 °F /  7.9 °C 37.7 °F /  3.2 °C 30.32 in /  1026.6 hPa NE 1.0 mph /  1.6 km/h 3.0 mph /  4.8 km/h 72 % 0.00 in /  0 mm
10:26 46.3 °F /  7.9 °C 37.8 °F /  3.2 °C 30.32 in /  1026.6 hPa NE 1.0 mph /  1.6 km/h 4.0 mph /  6.4 km/h 72 % 0.00 in /  0 mm
10:31 46.4 °F /  8 °C 38.2 °F /  3.4 °C 30.32 in /  1026.6 hPa NE 2.0 mph /  3.2 km/h 5.0 mph /  8 km/h 73 % 0.00 in /  0 mm
10:36 46.5 °F /  8.1 °C 37.6 °F /  3.1 °C 30.32 in /  1026.6 hPa NE 1.0 mph /  1.6 km/h 4.0 mph /  6.4 km/h 71 % 0.00 in /  0 mm
10:51 46.5 °F /  8.1 °C 37.6 °F /  3.1 °C 30.31 in /  1026.3 hPa NE 3.0 mph /  4.8 km/h 5.0 mph /  8 km/h 71 % 0.00 in /  0 mm
10:56 46.3 °F /  7.9 °C 37.0 °F /  2.8 °C 30.31 in /  1026.3 hPa Calm   3.0 mph /  4.8 km/h 70 % 0.00 in /  0 mm
11:06 46.3 °F /  7.9 °C 38.1 °F /  3.4 °C 30.31 in /  1026.3 hPa NE 2.0 mph /  3.2 km/h 4.0 mph /  6.4 km/h 73 % 0.00 in /  0 mm
11:11 46.2 °F /  7.9 °C 38.0 °F /  3.3 °C 30.31 in /  1026.3 hPa Calm   2.0 mph /  3.2 km/h 73 % 0.00 in /  0 mm
11:16 46.2 °F /  7.9 °C 38.4 °F /  3.6 °C 30.31 in /  1026.3 hPa NE 1.0 mph /  1.6 km/h 4.0 mph /  6.4 km/h 74 % 0.00 in /  0 mm
11:21 46.1 °F /  7.8 °C 38.3 °F /  3.5 °C 30.30 in /  1026 hPa NE 2.0 mph /  3.2 km/h 3.0 mph /  4.8 km/h 74 % 0.00 in /  0 mm
11:27 46.0 °F /  7.8 °C 37.8 °F /  3.2 °C 30.29 in /  1025.6 hPa NNE 3.4 mph /  5.5 km/h 4.6 mph /  7.4 km/h 73 % 0.00 in /  0 mm
11:41 46.0 °F /  7.8 °C 38.5 °F /  3.6 °C 30.29 in /  1025.6 hPa NE 2.0 mph /  3.2 km/h 6.0 mph /  9.7 km/h 75 % 0.00 in /  0 mm
11:46 46.1 °F /  7.8 °C 38.6 °F /  3.7 °C 30.28 in /  1025.3 hPa NNE 2.0 mph /  3.2 km/h 6.0 mph /  9.7 km/h 75 % 0.00 in /  0 mm
11:56 46.1 °F /  7.8 °C 38.3 °F /  3.5 °C 30.28 in /  1025.3 hPa NE 1.0 mph /  1.6 km/h 4.0 mph /  6.4 km/h 74 % 0.00 in /  0 mm
12:06 46.3 °F /  7.9 °C 38.5 °F /  3.6 °C 30.27 in /  1024.9 hPa NNE 4.0 mph /  6.4 km/h 5.0 mph /  8 km/h 74 % 0.00 in /  0 mm
12:10 46.4 °F /  8 °C 38.9 °F /  3.8 °C 30.28 in /  1025.3 hPa NE 4.3 mph /  6.9 km/h 5.8 mph /  9.3 km/h 75 % 0.00 in /  0 mm
12:20 46.7 °F /  8.2 °C 39.2 °F /  4 °C 30.27 in /  1024.9 hPa ENE 1.0 mph /  1.6 km/h 3.5 mph /  5.6 km/h 75 % 0.00 in /  0 mm
12:25 46.9 °F /  8.3 °C 38.7 °F /  3.7 °C 30.27 in /  1024.9 hPa ENE 0.5 mph /  0.8 km/h 1.2 mph /  1.9 km/h 73 % 0.00 in /  0 mm
12:35 46.9 °F /  8.3 °C 38.7 °F /  3.7 °C 30.26 in /  1024.6 hPa NE 1.9 mph /  3.1 km/h 3.5 mph /  5.6 km/h 73 % 0.00 in /  0 mm
12:45 46.9 °F /  8.3 °C 38.3 °F /  3.5 °C 30.26 in /  1024.6 hPa ENE 3.1 mph /  5 km/h 3.5 mph /  5.6 km/h 72 % 0.00 in /  0 mm
12:50 46.8 °F /  8.2 °C 38.2 °F /  3.4 °C 30.26 in /  1024.6 hPa ENE 0.6 mph /  1 km/h 2.3 mph /  3.7 km/h 72 % 0.00 in /  0 mm
12:55 46.8 °F /  8.2 °C 38.2 °F /  3.4 °C 30.26 in /  1024.6 hPa NNE 2.0 mph /  3.2 km/h 4.0 mph /  6.4 km/h 72 % 0.00 in /  0 mm
13:00 46.9 °F /  8.3 °C 38.7 °F /  3.7 °C 30.26 in /  1024.6 hPa ENE 2.0 mph /  3.2 km/h 4.0 mph /  6.4 km/h 73 % 0.00 in /  0 mm
13:05 47.0 °F /  8.3 °C 38.4 °F /  3.6 °C 30.26 in /  1024.6 hPa NNE 3.3 mph /  5.3 km/h 5.0 mph /  8 km/h 72 % 0.00 in /  0 mm
13:10 47.0 °F /  8.3 °C 37.7 °F /  3.2 °C 30.26 in /  1024.6 hPa ENE 1.3 mph /  2.1 km/h 3.5 mph /  5.6 km/h 70 % 0.00 in /  0 mm
13:21 47.2 °F /  8.4 °C 39.0 °F /  3.9 °C 30.25 in /  1024.3 hPa NNE 2.0 mph /  3.2 km/h 4.0 mph /  6.4 km/h 73 % 0.00 in /  0 mm
13:26 47.3 °F /  8.5 °C 38.7 °F /  3.7 °C 30.25 in /  1024.3 hPa NNE 2.0 mph /  3.2 km/h 5.0 mph /  8 km/h 72 % 0.00 in /  0 mm
13:31 47.4 °F /  8.6 °C 38.5 °F /  3.6 °C 30.25 in /  1024.3 hPa NNE 3.0 mph /  4.8 km/h 4.6 mph /  7.4 km/h 71 % 0.00 in /  0 mm
13:51 47.0 °F /  8.3 °C 37.7 °F /  3.2 °C 30.25 in /  1024.3 hPa NW 0.1 mph /  0.2 km/h 2.3 mph /  3.7 km/h 70 % 0.00 in /  0 mm
13:56 47.1 °F /  8.4 °C 37.8 °F /  3.2 °C 30.25 in /  1024.3 hPa NNE 2.6 mph /  4.2 km/h 3.5 mph /  5.6 km/h 70 % 0.00 in /  0 mm
14:06 47.0 °F /  8.3 °C 37.0 °F /  2.8 °C 30.25 in /  1024.3 hPa NE 0.5 mph /  0.8 km/h 1.2 mph /  1.9 km/h 68 % 0.00 in /  0 mm
14:12 46.9 °F /  8.3 °C 36.9 °F /  2.7 °C 30.25 in /  1024.3 hPa NNE 0.1 mph /  0.2 km/h 1.2 mph /  1.9 km/h 68 % 0.00 in /  0 mm
14:17 46.8 °F /  8.2 °C 37.2 °F /  2.9 °C 30.25 in /  1024.3 hPa NNE 0.1 mph /  0.2 km/h 1.2 mph /  1.9 km/h 69 % 0.00 in /  0 mm
14:23 46.6 °F /  8.1 °C 37.3 °F /  2.9 °C 30.25 in /  1024.3 hPa NNE 0.6 mph /  1 km/h 2.3 mph /  3.7 km/h 70 % 0.00 in /  0 mm
14:28 46.3 °F /  7.9 °C 36.7 °F /  2.6 °C 30.25 in /  1024.3 hPa NE 0.9 mph /  1.4 km/h 2.3 mph /  3.7 km/h 69 % 0.00 in /  0 mm
14:38 46.0 °F /  7.8 °C 36.0 °F /  2.2 °C 30.25 in /  1024.3 hPa NE 0.1 mph /  0.2 km/h 1.2 mph /  1.9 km/h 68 % 0.00 in /  0 mm
14:48 45.7 °F /  7.6 °C 36.8 °F /  2.7 °C 30.25 in /  1024.3 hPa Calm   1.2 mph /  1.9 km/h 71 % 0.00 in /  0 mm
14:58 45.6 °F /  7.6 °C 36.7 °F /  2.6 °C 30.25 in /  1024.3 hPa NNE 0.2 mph /  0.3 km/h 1.2 mph /  1.9 km/h 71 % 0.00 in /  0 mm
15:03 45.5 °F /  7.5 °C 36.6 °F /  2.6 °C 30.25 in /  1024.3 hPa NNE 0.1 mph /  0.2 km/h 1.0 mph /  1.6 km/h 71 % 0.00 in /  0 mm
15:08 45.5 °F /  7.5 °C 37.0 °F /  2.8 °C 30.26 in /  1024.6 hPa NNE 0.8 mph /  1.3 km/h 2.3 mph /  3.7 km/h 72 % 0.00 in /  0 mm
15:13 45.4 °F /  7.4 °C 36.9 °F /  2.7 °C 30.25 in /  1024.3 hPa NNE 0.2 mph /  0.3 km/h 2.3 mph /  3.7 km/h 72 % 0.00 in /  0 mm
15:23 45.2 °F /  7.3 °C 36.7 °F /  2.6 °C 30.25 in /  1024.3 hPa NNE 0.1 mph /  0.2 km/h 1.2 mph /  1.9 km/h 72 % 0.00 in /  0 mm
15:29 45.2 °F /  7.3 °C 36.7 °F /  2.6 °C 30.25 in /  1024.3 hPa Calm     72 % 0.00 in /  0 mm
15:34 45.1 °F /  7.3 °C 36.6 °F /  2.6 °C 30.26 in /  1024.6 hPa Calm     72 % 0.00 in /  0 mm
15:41 45.1 °F /  7.3 °C 36.6 °F /  2.6 °C 30.25 in /  1024.3 hPa Calm     72 % 0.00 in /  0 mm
15:46 45.0 °F /  7.2 °C 36.5 °F /  2.5 °C 30.26 in /  1024.6 hPa Calm     72 % 0.00 in /  0 mm
15:51 44.9 °F /  7.2 °C 36.4 °F /  2.4 °C 30.26 in /  1024.6 hPa Calm     72 % 0.00 in /  0 mm
15:56 44.8 °F /  7.1 °C 36.7 °F /  2.6 °C 30.25 in /  1024.3 hPa Calm     73 % 0.00 in /  0 mm
16:01 44.6 °F /  7 °C 36.5 °F /  2.5 °C 30.26 in /  1024.6 hPa Calm     73 % 0.00 in /  0 mm
16:06 44.5 °F /  6.9 °C 36.0 °F /  2.2 °C 30.25 in /  1024.3 hPa Calm     72 % 0.00 in /  0 mm
16:10 44.4 °F /  6.9 °C 36.3 °F /  2.4 °C 30.26 in /  1024.6 hPa Calm     73 % 0.00 in /  0 mm
16:20 44.1 °F /  6.7 °C 36.0 °F /  2.2 °C 30.25 in /  1024.3 hPa Calm     73 % 0.00 in /  0 mm
16:25 43.9 °F /  6.6 °C 35.8 °F /  2.1 °C 30.25 in /  1024.3 hPa Calm     73 % 0.00 in /  0 mm
16:35 43.7 °F /  6.5 °C 36.0 °F /  2.2 °C 30.26 in /  1024.6 hPa Calm     74 % 0.00 in /  0 mm
16:40 43.6 °F /  6.4 °C 35.9 °F /  2.2 °C 30.26 in /  1024.6 hPa Calm     74 % 0.00 in /  0 mm
16:45 43.4 °F /  6.3 °C 36.0 °F /  2.2 °C 30.25 in /  1024.3 hPa Calm     75 % 0.00 in /  0 mm
16:50 43.2 °F /  6.2 °C 35.8 °F /  2.1 °C 30.26 in /  1024.6 hPa Calm     75 % 0.00 in /  0 mm
16:55 43.1 °F /  6.2 °C 35.7 °F /  2.1 °C 30.26 in /  1024.6 hPa Calm     75 % 0.00 in /  0 mm
17:00 43.0 °F /  6.1 °C 35.6 °F /  2 °C 30.26 in /  1024.6 hPa Calm     75 % 0.00 in /  0 mm
17:05 42.8 °F /  6 °C 35.8 °F /  2.1 °C 30.26 in /  1024.6 hPa Calm     76 % 0.00 in /  0 mm
17:10 42.6 °F /  5.9 °C 35.6 °F /  2 °C 30.26 in /  1024.6 hPa Calm     76 % 0.00 in /  0 mm
17:15 42.5 °F /  5.8 °C 35.5 °F /  1.9 °C 30.26 in /  1024.6 hPa Calm     76 % 0.00 in /  0 mm
17:20 42.3 °F /  5.7 °C 35.3 °F /  1.8 °C 30.26 in /  1024.6 hPa Calm     76 % 0.00 in /  0 mm
17:25 42.2 °F /  5.7 °C 35.2 °F /  1.8 °C 30.26 in /  1024.6 hPa Calm     76 % 0.00 in /  0 mm
17:30 42.1 °F /  5.6 °C 35.1 °F /  1.7 °C 30.26 in /  1024.6 hPa Calm     76 % 0.00 in /  0 mm
17:35 42.0 °F /  5.6 °C 35.3 °F /  1.8 °C 30.26 in /  1024.6 hPa Calm     77 % 0.00 in /  0 mm
17:51 41.7 °F /  5.4 °C 35.3 °F /  1.8 °C 30.26 in /  1024.6 hPa Calm     78 % 0.00 in /  0 mm
17:56 41.5 °F /  5.3 °C 35.2 °F /  1.8 °C 30.26 in /  1024.6 hPa Calm     78 % 0.00 in /  0 mm
18:06 41.3 °F /  5.2 °C 35.3 °F /  1.8 °C 30.26 in /  1024.6 hPa Calm     79 % 0.00 in /  0 mm
18:16 41.1 °F /  5.1 °C 34.8 °F /  1.6 °C 30.26 in /  1024.6 hPa Calm     78 % 0.00 in /  0 mm
18:26 41.0 °F /  5 °C 35.0 °F /  1.7 °C 30.26 in /  1024.6 hPa Calm     79 % 0.00 in /  0 mm
18:31 40.9 °F /  4.9 °C 34.9 °F /  1.6 °C 30.26 in /  1024.6 hPa Calm     79 % 0.00 in /  0 mm
18:36 40.8 °F /  4.9 °C 34.8 °F /  1.6 °C 30.26 in /  1024.6 hPa Calm     79 % 0.00 in /  0 mm
18:41 40.7 °F /  4.8 °C 35.0 °F /  1.7 °C 30.26 in /  1024.6 hPa Calm     80 % 0.00 in /  0 mm
18:56 40.5 °F /  4.7 °C 34.5 °F /  1.4 °C 30.26 in /  1024.6 hPa Calm     79 % 0.00 in /  0 mm
19:07 40.4 °F /  4.7 °C 34.7 °F /  1.5 °C 30.25 in /  1024.3 hPa Calm   1.2 mph /  1.9 km/h 80 % 0.00 in /  0 mm
19:12 40.4 °F /  4.7 °C 34.7 °F /  1.5 °C 30.25 in /  1024.3 hPa Calm   1.2 mph /  1.9 km/h 80 % 0.00 in /  0 mm
19:17 40.4 °F /  4.7 °C 34.7 °F /  1.5 °C 30.25 in /  1024.3 hPa Calm     80 % 0.00 in /  0 mm
19:22 40.3 °F /  4.6 °C 34.6 °F /  1.4 °C 30.25 in /  1024.3 hPa Calm     80 % 0.00 in /  0 mm
19:27 40.3 °F /  4.6 °C 34.6 °F /  1.4 °C 30.24 in /  1023.9 hPa Calm     80 % 0.00 in /  0 mm
19:32 40.3 °F /  4.6 °C 34.6 °F /  1.4 °C 30.24 in /  1023.9 hPa Calm     80 % 0.00 in /  0 mm
19:37 40.3 °F /  4.6 °C 34.6 °F /  1.4 °C 30.24 in /  1023.9 hPa Calm     80 % 0.00 in /  0 mm
19:53 40.1 °F /  4.5 °C 34.4 °F /  1.3 °C 30.24 in /  1023.9 hPa ESE 1.0 mph /  1.6 km/h 2.3 mph /  3.7 km/h 80 % 0.00 in /  0 mm
20:03 39.9 °F /  4.4 °C 34.2 °F /  1.2 °C 30.25 in /  1024.3 hPa ESE 0.6 mph /  1 km/h 2.3 mph /  3.7 km/h 80 % 0.00 in /  0 mm
20:08 39.8 °F /  4.3 °C 34.1 °F /  1.2 °C 30.24 in /  1023.9 hPa ESE 0.7 mph /  1.1 km/h 2.3 mph /  3.7 km/h 80 % 0.00 in /  0 mm
20:13 39.7 °F /  4.3 °C 34.0 °F /  1.1 °C 30.24 in /  1023.9 hPa ESE 0.9 mph /  1.4 km/h 2.3 mph /  3.7 km/h 80 % 0.00 in /  0 mm
20:18 39.6 °F /  4.2 °C 33.9 °F /  1.1 °C 30.24 in /  1023.9 hPa Calm   1.2 mph /  1.9 km/h 80 % 0.00 in /  0 mm
20:28 39.3 °F /  4.1 °C 33.6 °F /  0.9 °C 30.23 in /  1023.6 hPa Calm   2.3 mph /  3.7 km/h 80 % 0.00 in /  0 mm
20:33 39.2 °F /  4 °C 33.5 °F /  0.8 °C 30.23 in /  1023.6 hPa South 1.2 mph /  1.9 km/h 3.5 mph /  5.6 km/h 80 % 0.00 in /  0 mm
20:38 39.1 °F /  3.9 °C 33.5 °F /  0.8 °C 30.24 in /  1023.9 hPa Calm   2.3 mph /  3.7 km/h 80 % 0.00 in /  0 mm
20:43 39.0 °F /  3.9 °C 33.4 °F /  0.8 °C 30.24 in /  1023.9 hPa Calm   1.2 mph /  1.9 km/h 80 % 0.00 in /  0 mm
20:48 38.8 °F /  3.8 °C 33.2 °F /  0.7 °C 30.24 in /  1023.9 hPa South 0.4 mph /  0.6 km/h 1.0 mph /  1.6 km/h 80 % 0.00 in /  0 mm
20:54 38.8 °F /  3.8 °C 33.2 °F /  0.7 °C 30.24 in /  1023.9 hPa Calm   1.2 mph /  1.9 km/h 80 % 0.00 in /  0 mm
20:59 38.6 °F /  3.7 °C 33.0 °F /  0.6 °C 30.24 in /  1023.9 hPa South 0.1 mph /  0.2 km/h 1.2 mph /  1.9 km/h 80 % 0.00 in /  0 mm
21:04 38.6 °F /  3.7 °C 33.3 °F /  0.7 °C 30.24 in /  1023.9 hPa Calm     81 % 0.00 in /  0 mm
21:09 38.4 °F /  3.6 °C 33.1 °F /  0.6 °C 30.24 in /  1023.9 hPa Calm     81 % 0.00 in /  0 mm
21:14 38.3 °F /  3.5 °C 33.0 °F /  0.6 °C 30.24 in /  1023.9 hPa Calm     81 % 0.00 in /  0 mm
21:19 38.2 °F /  3.4 °C 32.9 °F /  0.5 °C 30.24 in /  1023.9 hPa South 0.6 mph /  1 km/h 2.3 mph /  3.7 km/h 81 % 0.00 in /  0 mm
21:25 38.0 °F /  3.3 °C 32.7 °F /  0.4 °C 30.24 in /  1023.9 hPa Calm     81 % 0.00 in /  0 mm
21:30 38.0 °F /  3.3 °C 32.7 °F /  0.4 °C 30.24 in /  1023.9 hPa Calm     81 % 0.00 in /  0 mm
21:35 37.9 °F /  3.3 °C 32.9 °F /  0.5 °C 30.24 in /  1023.9 hPa Calm     82 % 0.00 in /  0 mm
21:40 37.8 °F /  3.2 °C 32.8 °F /  0.4 °C 30.24 in /  1023.9 hPa Calm     82 % 0.00 in /  0 mm
21:45 37.7 °F /  3.2 °C 32.7 °F /  0.4 °C 30.25 in /  1024.3 hPa Calm     82 % 0.00 in /  0 mm
21:50 37.6 °F /  3.1 °C 32.6 °F /  0.3 °C 30.25 in /  1024.3 hPa Calm   1.0 mph /  1.6 km/h 82 % 0.00 in /  0 mm
21:55 37.5 °F /  3.1 °C 32.5 °F /  0.3 °C 30.26 in /  1024.6 hPa Calm     82 % 0.00 in /  0 mm
22:01 37.4 °F /  3 °C 32.4 °F /  0.2 °C 30.26 in /  1024.6 hPa Calm     82 % 0.00 in /  0 mm
22:11 37.1 °F /  2.8 °C 32.4 °F /  0.2 °C 30.25 in /  1024.3 hPa Calm     83 % 0.00 in /  0 mm
22:16 37.0 °F /  2.8 °C 32.3 °F /  0.2 °C 30.25 in /  1024.3 hPa Calm     83 % 0.00 in /  0 mm
22:21 36.9 °F /  2.7 °C 32.2 °F /  0.1 °C 30.26 in /  1024.6 hPa Calm     83 % 0.00 in /  0 mm
22:26 36.9 °F /  2.7 °C 32.2 °F /  0.1 °C 30.25 in /  1024.3 hPa Calm     83 % 0.00 in /  0 mm
22:31 36.7 °F /  2.6 °C 32.0 °F /  0 °C 30.25 in /  1024.3 hPa Calm     83 % 0.00 in /  0 mm
22:36 36.7 °F /  2.6 °C 32.3 °F /  0.2 °C 30.26 in /  1024.6 hPa Calm     84 % 0.00 in /  0 mm
22:46 36.5 °F /  2.5 °C 32.1 °F /  0.1 °C 30.26 in /  1024.6 hPa Calm   1.2 mph /  1.9 km/h 84 % 0.00 in /  0 mm
22:51 36.4 °F /  2.4 °C 32.0 °F /  0 °C 30.26 in /  1024.6 hPa Calm   1.2 mph /  1.9 km/h 84 % 0.00 in /  0 mm
23:01 36.3 °F /  2.4 °C 32.2 °F /  0.1 °C 30.25 in /  1024.3 hPa Calm     85 % 0.00 in /  0 mm
23:07 36.3 °F /  2.4 °C 32.2 °F /  0.1 °C 30.26 in /  1024.6 hPa Calm     85 % 0.00 in /  0 mm
23:11 36.3 °F /  2.4 °C 32.5 °F /  0.3 °C 30.26 in /  1024.6 hPa Calm     86 % 0.00 in /  0 mm
23:17 36.4 °F /  2.4 °C 32.6 °F /  0.3 °C 30.26 in /  1024.6 hPa Calm     86 % 0.00 in /  0 mm
23:22 36.4 °F /  2.4 °C 32.6 °F /  0.3 °C 30.25 in /  1024.3 hPa Calm     86 % 0.00 in /  0 mm
23:28 36.4 °F /  2.4 °C 32.6 °F /  0.3 °C 30.25 in /  1024.3 hPa Calm     86 % 0.00 in /  0 mm
23:33 36.4 °F /  2.4 °C 32.6 °F /  0.3 °C 30.26 in /  1024.6 hPa Calm     86 % 0.00 in /  0 mm
23:38 36.5 °F /  2.5 °C 32.7 °F /  0.4 °C 30.25 in /  1024.3 hPa Calm     86 % 0.00 in /  0 mm
23:43 36.5 °F /  2.5 °C 32.7 °F /  0.4 °C 30.25 in /  1024.3 hPa Calm     86 % 0.00 in /  0 mm
23:53 36.7 °F /  2.6 °C 33.2 °F /  0.7 °C 30.26 in /  1024.6 hPa Calm     87 % 0.00 in /  0 mm
23:58 36.8 °F /  2.7 °C 33.3 °F /  0.7 °C 30.26 in /  1024.6 hPa Calm     87 % 0.00 in /  0 mm
Crab Meadow Weather
Compliments of Weather Underground - 2.75 mb

Script developed by  Jim McMurry - jmcmurry@mwt.net Adapted for the template by  Wim van der Kuil - Leuven-Template.eu

Weather Terms: Watch - A watch is used when the risk of a hazardous weather or hydrologic event has increased significantly, but its occurrence, location or timing is still uncertain. It is intended to provide enough lead time so those who need to set their plans in motion can do so. A watch means that hazardous weather is possible. People should have a plan of action in case a storm threatens and they should listen for later information and possible warnings especially when planning travel or outdoor activities.